GAOFEN 8                
1 40701U 15030A   19257.83064303  .00000735  00000-0  33724-4 0  9990
2 40701  97.4431  17.0373 0011970  42.6190  75.4502 15.23526784235122
GAOFEN 8 DEB            
1 43422U 15030C   19257.16222262  .00001021  00000-0  30290-4 0  9993
2 43422  97.4813  38.6216 0006602 124.1208 236.0663 15.37217476229762
GAOFEN 8 DEB            
1 43423U 15030D   19257.63090082  .00001170  00000-0  33737-4 0  9993
2 43423  97.4804  39.5168 0008320 117.6707 242.5383 15.37810750225232